Change the Weather History Date:

Wednesday, January 1, 2014

  Actual Average Record
Temperature  
Mean Temperature 29 °F 26 °F  
Max Temperature 33 °F 35 °F 60 °F (1998)
Min Temperature 25 °F 17 °F -25 °F (1942)
Degree Days  
Heating Degree Days 36 39  
Month to date heating degree days 36 39  
Since 1 July heating degree days 2961 2860  
Cooling Degree Days 0 0  
Month to date cooling degree days 0 0  
Year to date cooling degree days 0 0  
Moisture  
Dew Point 26 °F    
Average Humidity 88    
Maximum Humidity 100    
Minimum Humidity 75    
Precipitation  
Precipitation 0.33 in 0.02 in 0.52 in (1943)
Month to date precipitation 0.33 0.02  
Year to date precipitation 0.33 0.02  
Snow  
Snow 5.00 in 0.30 in 5.00 in (2014)
Month to date snowfall 5.0 0.3  
Since 1 July snowfall 40.0 20.2  
Snow Depth 3.00 in    
Sea Level Pressure  
Sea Level Pressure 30.24 in    
Wind  
Wind Speed 10 mph (WSW)    
Max Wind Speed 22 mph    
Max Gust Speed 25 mph    
Visibility 5 miles    
Events Fog , Snow    
T = Trace of Precipitation, MM = Missing Value Source: NWS Daily Summary

Daily Weather History Graph

Daily Weather History Graph

Search for Another Location

Airport or City:

Trip Planner

Search our weather history database for the weather conditions in past years. The results will help you decide how hot, cold, wet, or windy it might be!

Date:

Astronomy

Jan. 01, 2014 Rise Set
Actual Time 7:55 AM MST 4:40 PM MST
Civil Twilight 7:21 AM MST 5:14 PM MST
Nautical Twilight 6:43 AM MST 5:52 PM MST
Astronomical Twilight 6:07 AM MST 6:28 PM MST
Moon 7:45 AM MST (1/1) 5:33 PM MST (1/1)
Length of Visible Light 9h 53m
Length of Day
8h 45m
New Moon, 0% of the Moon is Illuminated
Jan 1
New Moon
Jan 7
First Quarter
Jan 15
Full
Jan 23
Last Quarter
Jan 30
New

Hourly Weather History & Observations

Time (MST) Temp. Windchill Dew Point Humidity Pressure Visibility Wind Dir Wind Speed Gust Speed Precip Events Conditions
12:53 AM 32.0 °F 26.4 °F 30.0 °F 92% 30.09 in 7.0 mi WSW 5.8 mph - 0.00 in Snow Light Snow
1:29 AM 32.0 °F 24.8 °F 30.0 °F 92% 30.04 in 2.0 mi NNE 8.1 mph - 0.00 in Snow Light Snow
1:33 AM 32.0 °F 27.5 °F 30.0 °F 92% 30.04 in 1.0 mi NNE 4.6 mph - 0.00 in Snow Light Snow
1:36 AM 32.0 °F 26.4 °F 30.9 °F 96% 30.04 in 0.5 mi NNE 5.8 mph - 0.00 in Fog , Snow Snow
1:42 AM 32.0 °F 26.4 °F 30.9 °F 96% 30.04 in 0.5 mi NNE 5.8 mph - 0.01 in Fog , Snow Snow
1:53 AM 32.0 °F 26.4 °F 30.9 °F 96% 30.11 in 0.5 mi NE 5.8 mph - 0.02 in Fog , Snow Snow
1:58 AM 32.0 °F 26.4 °F 30.9 °F 96% 30.04 in 0.5 mi NE 5.8 mph - 0.00 in Fog , Snow Snow
2:53 AM 25.0 °F 14.8 °F 24.1 °F 96% 30.16 in 0.5 mi ENE 10.4 mph - 0.05 in Fog , Snow Snow
3:53 AM 25.0 °F 19.3 °F 24.1 °F 96% 30.18 in 0.5 mi NE 4.6 mph - 0.09 in Fog , Snow Snow
4:01 AM 25.0 °F 18.1 °F 24.1 °F 96% 30.10 in 1.0 mi NE 5.8 mph - 0.00 in Snow Light Snow
4:08 AM 25.0 °F 17.1 °F 24.1 °F 96% 30.11 in 1.8 mi NNE 6.9 mph - 0.01 in Snow Light Snow
4:30 AM 26.1 °F 16.2 °F 24.1 °F 92% 30.13 in 2.0 mi North 10.4 mph - 0.02 in Snow Light Snow
4:35 AM 26.1 °F 17.6 °F 24.1 °F 92% 30.13 in 2.5 mi North 8.1 mph - 0.02 in Snow Light Snow
4:53 AM 27.0 °F 20.5 °F 25.0 °F 92% 30.22 in 0.8 mi NNW 5.8 mph - 0.03 in Snow Light Snow
5:10 AM 27.0 °F 20.5 °F 26.1 °F 96% 30.15 in 0.5 mi NW 5.8 mph - 0.02 in Fog , Snow Snow
5:53 AM 28.9 °F 22.8 °F 27.0 °F 92% 30.27 in 0.5 mi NNW 5.8 mph - 0.11 in Fog , Snow Snow
6:35 AM 28.9 °F 25.2 °F 28.0 °F 96% 30.20 in 0.5 mi WNW 3.5 mph - 0.03 in Snow Light Snow
6:39 AM 28.9 °F 25.2 °F 28.0 °F 96% 30.20 in 3.0 mi West 3.5 mph - 0.03 in Snow Light Snow
6:53 AM 28.0 °F 22.8 °F 27.0 °F 96% 30.30 in 7.0 mi SW 4.6 mph - 0.03 in Snow Light Snow
7:08 AM 27.0 °F 18.7 °F 26.1 °F 96% 30.21 in 9.0 mi WSW 8.1 mph - 0.00 in Fog Overcast
7:24 AM 28.0 °F 17.5 °F 27.0 °F 96% 30.21 in 0.5 mi WSW 12.7 mph - 0.00 in   Overcast
7:35 AM 28.0 °F 20.0 °F 27.0 °F 96% 30.21 in 0.5 mi SW 8.1 mph - 0.00 in   Overcast
7:53 AM 28.0 °F 20.8 °F 27.0 °F 96% 30.32 in 0.5 mi SSW 6.9 mph - 0.00 in Fog Light Freezing Fog
8:09 AM 28.0 °F 20.0 °F 27.0 °F 96% 30.23 in 0.5 mi SSW 8.1 mph - N/A Fog Light Freezing Fog
8:13 AM 28.0 °F 19.3 °F 27.0 °F 96% 30.24 in 0.5 mi SW 9.2 mph - N/A Fog Light Freezing Fog
8:35 AM 28.0 °F 20.8 °F 27.0 °F 96% 30.25 in 0.5 mi SW 6.9 mph - N/A   Mostly Cloudy
8:53 AM 28.0 °F 20.0 °F 28.0 °F 100% 30.36 in 0.5 mi SW 8.1 mph - N/A   Mostly Cloudy
9:08 AM 28.0 °F 20.0 °F 27.0 °F 96% 30.26 in 0.5 mi SW 8.1 mph - N/A Fog Mostly Cloudy
9:10 AM 28.0 °F 20.0 °F 27.0 °F 96% 30.27 in 9.0 mi SW 8.1 mph - N/A Fog Mostly Cloudy
9:53 AM 28.0 °F 18.1 °F 25.0 °F 88% 30.38 in 10.0 mi West 11.5 mph - N/A   Mostly Cloudy
10:53 AM 30.0 °F 22.4 °F 27.0 °F 88% 30.39 in 10.0 mi SSW 8.1 mph - N/A   Mostly Cloudy
11:53 AM 30.9 °F 25.2 °F 26.1 °F 82% 30.37 in 10.0 mi SW 5.8 mph - N/A   Mostly Cloudy
12:53 PM 30.9 °F 23.5 °F 27.0 °F 85% 30.35 in 10.0 mi SW 8.1 mph - 0.00 in   Mostly Cloudy
1:53 PM 33.1 °F 25.5 °F 28.0 °F 82% 30.33 in 10.0 mi SW 9.2 mph - N/A   Scattered Clouds
2:53 PM 32.0 °F 24.2 °F 26.1 °F 79% 30.34 in 10.0 mi SW 9.2 mph - N/A   Scattered Clouds
3:53 PM 30.9 °F 21.2 °F 26.1 °F 82% 30.33 in 10.0 mi SW 12.7 mph - N/A   Scattered Clouds
4:53 PM 28.9 °F 17.7 °F 24.1 °F 82% 30.33 in 10.0 mi WSW 15.0 mph - N/A   Scattered Clouds
5:53 PM 28.9 °F 17.3 °F 24.1 °F 82% 30.32 in 10.0 mi SW 16.1 mph - N/A   Partly Cloudy
6:53 PM 28.9 °F 16.5 °F 23.0 °F 78% 30.32 in 10.0 mi WSW 18.4 mph - N/A   Clear
7:53 PM 28.0 °F 16.5 °F 21.9 °F 78% 30.32 in 10.0 mi WSW 15.0 mph - N/A   Clear
8:53 PM 28.9 °F 17.3 °F 21.9 °F 75% 30.30 in 10.0 mi WSW 16.1 mph - N/A   Clear
9:53 PM 28.0 °F 17.5 °F 21.9 °F 78% 30.31 in 10.0 mi SW 12.7 mph - N/A   Clear
10:53 PM 26.1 °F 15.6 °F 21.0 °F 81% 30.30 in 10.0 mi SW 11.5 mph - N/A   Clear
11:53 PM 26.1 °F 15.6 °F 19.9 °F 78% 30.29 in 10.0 mi SW 11.5 mph - N/A   Clear